This is the latest recevied weather packets stored in our database for station/object SQ9RHX-13. If no packets are shown the sender has not sent any weather packets the latest 10 day(s).
| Time | Temp. | Humidity | Pressure | Rain* | Wind** | Luminosity | Snow |
|---|---|---|---|---|---|---|---|
| 1777712703 | 22.78° C | 32% | 1028.6 hPa | 0 mm | - | 588 W/m² | - |
| 1777712403 | 22.78° C | 30% | 1028.6 hPa | 0 mm | - | 585 W/m² | - |
| 1777712103 | 23.33° C | 34% | 1028.6 hPa | 0 mm | - | 579 W/m² | - |
| 1777711803 | 23.89° C | 34% | 1028.8 hPa | 0 mm | - | 568 W/m² | - |
| 1777711503 | 23.33° C | 34% | 1028.7 hPa | 0 mm | - | 561 W/m² | - |
| 1777711205 | 22.78° C | 34% | 1028.7 hPa | 0 mm | - | 547 W/m² | - |
| 1777710903 | 22.78° C | 34% | 1028.8 hPa | 0 mm | - | 544 W/m² | - |
| 1777710603 | 22.78° C | 35% | 1028.9 hPa | 0 mm | - | 533 W/m² | - |
| 1777710302 | 22.78° C | 35% | 1028.9 hPa | 0 mm | - | 523 W/m² | - |
| 1777710004 | 21.67° C | 37% | 1028.9 hPa | 0 mm | - | 510 W/m² | - |
| 1777709704 | 22.22° C | 37% | 1028.9 hPa | 0 mm | - | 499 W/m² | - |
| 1777709403 | 22.22° C | 37% | 1028.9 hPa | 0 mm | - | 493 W/m² | - |
| 1777709104 | 21.67° C | 38% | 1029.1 hPa | 0 mm | - | 462 W/m² | - |
| 1777708805 | 21.11° C | 40% | 1029 hPa | 0 mm | - | 469 W/m² | - |
| 1777708504 | 20.56° C | 40% | 1029.1 hPa | 0 mm | - | 461 W/m² | - |
| 1777708204 | 20.56° C | 40% | 1029.1 hPa | 0 mm | - | 445 W/m² | - |
| 1777707903 | 20.56° C | 42% | 1029 hPa | 0 mm | - | 433 W/m² | - |
| 1777707604 | 20.56° C | 42% | 1029.1 hPa | 0 mm | - | 425 W/m² | - |
| 1777707303 | 20° C | 45% | 1029.1 hPa | 0 mm | - | 411 W/m² | - |
| 1777707006 | 20° C | 44% | 1028.9 hPa | 0 mm | - | 400 W/m² | - |
| 1777706703 | 20° C | 43% | 1028.9 hPa | 0 mm | - | 389 W/m² | - |
| 1777706403 | 19.44° C | 46% | 1029.3 hPa | 0 mm | - | 376 W/m² | - |
| 1777706103 | 18.89° C | 48% | 1029 hPa | 0 mm | - | 362 W/m² | - |
| 1777705803 | 18.89° C | 46% | 1029.1 hPa | 0 mm | - | 349 W/m² | - |
| 1777705504 | 18.89° C | 48% | 1029.1 hPa | 0 mm | - | 335 W/m² | - |
* Rain latest hour (hover to see other rain measurements)
** Current wind speed in m/s (hover to see current wind gust speed)